Location: El Portezuelo
(28.4984°N, 16.3589°W)
Time: 21:33:12
(UTC+00:00)

STARLINK-35 - Pass Details

Date: 20 January 2020
Orbit: 528 x 531 km, 53.0° (Epoch: 28 February)

Event Time Altitude Azimuth Distance (km) Brightness Sun altitude
Exits shadow 06:30:30 34° 339° (NNW) 891 4.4 -19.2°
Drops below altitude 10° 06:33:34 10° 24° (NNE) 1,774 6.3 -18.5°
Sets 06:35:55 0° 33° (NNE) 2,666 7.4 -18.0°
